• In Belarus
  • List of Countries
  • For 7 days
  • Water Temperature
  • Satellite Maps
  • Weather Map
  • Weather Widgets
  • user-avatar
    Login

    Hourly Weather Meknes

    Today, 21 January, Monday

    Time Temperature Precipitation Wind Pressure Humidity
    00:00 +8°C° 0 mm 2 mps 719 mmHg 87%
    01:00 +8°C° 0.1 mm 2 mps 719 mmHg 86%
    02:00 +8°C° 0.1 mm 2 mps 719 mmHg 86%
    03:00 +7°C° 0.1 mm 2 mps 719 mmHg 86%
    04:00 +7°C° 0.1 mm 3 mps 719 mmHg 85%
    05:00 +7°C° 0.1 mm 3 mps 719 mmHg 85%
    06:00 +7°C° 0 mm 3 mps 719 mmHg 86%
    07:00 +8°C° 0.2 mm 3 mps 719 mmHg 85%
    08:00 +8°C° 0.2 mm 3 mps 719 mmHg 84%
    09:00 +9°C° 0.2 mm 3 mps 719 mmHg 83%
    10:00 +10°C° 0.3 mm 3 mps 719 mmHg 78%
    11:00 +11°C° 0.3 mm 3 mps 719 mmHg 73%
    12:00 +11°C° 0.3 mm 4 mps 719 mmHg 68%
    13:00 +12°C° 0.2 mm 4 mps 719 mmHg 68%
    14:00 +12°C° 0.2 mm 4 mps 719 mmHg 67%
    15:00 +12°C° 0.2 mm 4 mps 719 mmHg 67%
    16:00 +10°C° 0.3 mm 4 mps 719 mmHg 74%
    17:00 +9°C° 0.3 mm 3 mps 719 mmHg 81%
    18:00 +8°C° 0.3 mm 2 mps 719 mmHg 88%
    19:00 +7°C° 0.1 mm 2 mps 719 mmHg 90%
    20:00 +7°C° 0.1 mm 2 mps 719 mmHg 91%
    21:00 +7°C° 0.1 mm 1 mps 720 mmHg 93%
    22:00 +6°C° 0 mm 2 mps 720 mmHg 92%
    23:00 +6°C° 0 mm 2 mps 720 mmHg 92%

    Tomorrow, 22 January, Tuesday

    Time Temperature Precipitation Wind Pressure Humidity
    00:00 +6°C° 0 mm 2 mps 720 mmHg 91%
    01:00 +5°C° 0 mm 2 mps 720 mmHg 90%
    02:00 +5°C° 0 mm 2 mps 720 mmHg 89%
    03:00 +5°C° 0 mm 2 mps 720 mmHg 88%
    04:00 +5°C° 0 mm 2 mps 720 mmHg 86%
    05:00 +4°C° 0 mm 3 mps 720 mmHg 84%
    06:00 +4°C° 0 mm 3 mps 720 mmHg 82%
    07:00 +4°C° 0 mm 3 mps 721 mmHg 79%
    08:00 +5°C° 0 mm 3 mps 721 mmHg 75%
    09:00 +7°C° 0 mm 3 mps 722 mmHg 71%
    10:00 +8°C° 0 mm 3 mps 722 mmHg 69%
    11:00 +10°C° 0 mm 4 mps 722 mmHg 67%
    12:00 +11°C° 0 mm 4 mps 722 mmHg 65%
    13:00 +11°C° 0.1 mm 4 mps 721 mmHg 67%
    14:00 +10°C° 0.1 mm 4 mps 721 mmHg 69%
    15:00 +10°C° 0.1 mm 4 mps 720 mmHg 71%
    16:00 +10°C° 0.1 mm 4 mps 720 mmHg 75%
    17:00 +8°C° 0.1 mm 4 mps 720 mmHg 79%
    18:00 +9°C° 0.1 mm 3 mps 720 mmHg 83%
    19:00 +8°C° 0.1 mm 3 mps 721 mmHg 86%
    20:00 +7°C° 0.1 mm 3 mps 721 mmHg 89%
    21:00 +7°C° 0.1 mm 3 mps 721 mmHg 91%
    22:00 +7°C° 0 mm 3 mps 721 mmHg 89%
    23:00 +7°C° 0 mm 3 mps 721 mmHg 88%

    Day after tomorrow, 23 January, Wednesday

    Time Temperature Precipitation Wind Pressure Humidity
    00:00 +7°C° 0 mm 3 mps 721 mmHg 86%
    01:00 +6°C° 0.2 mm 4 mps 720 mmHg 85%
    02:00 +7°C° 0.2 mm 4 mps 720 mmHg 84%
    03:00 +7°C° 0.2 mm 5 mps 720 mmHg 83%
    04:00 +7°C° 0.2 mm 5 mps 720 mmHg 83%
    05:00 +7°C° 0.2 mm 4 mps 719 mmHg 84%
    06:00 +7°C° 0.2 mm 4 mps 719 mmHg 84%
    07:00 +7°C° 0.2 mm 4 mps 719 mmHg 86%
    08:00 +7°C° 0.2 mm 4 mps 720 mmHg 87%
    09:00 +8°C° 0.2 mm 3 mps 720 mmHg 89%
    10:00 +8°C° 0.1 mm 4 mps 720 mmHg 85%
    11:00 +8°C° 0.1 mm 4 mps 720 mmHg 82%
    12:00 +10°C° 0.1 mm 4 mps 720 mmHg 79%
    13:00 +10°C° 0.1 mm 4 mps 720 mmHg 79%
    14:00 +10°C° 0.1 mm 4 mps 719 mmHg 80%
    15:00 +10°C° 0.1 mm 4 mps 719 mmHg 80%
    16:00 +10°C° 0.2 mm 4 mps 719 mmHg 83%
    17:00 +9°C° 0.2 mm 3 mps 719 mmHg 86%
    18:00 +9°C° 0.2 mm 2 mps 719 mmHg 89%
    19:00 +9°C° 0.1 mm 2 mps 719 mmHg 89%
    20:00 +8°C° 0.1 mm 2 mps 719 mmHg 89%
    21:00 +8°C° 0.1 mm 2 mps 720 mmHg 89%
    22:00 +8°C° 0 mm 2 mps 719 mmHg 88%
    23:00 +8°C° 0 mm 2 mps 719 mmHg 88%

    24 January, Thursday

    Time Temperature Precipitation Wind Pressure Humidity
    00:00 +8°C° 0 mm 2 mps 719 mmHg 87%
    01:00 +8°C° 0 mm 2 mps 718 mmHg 86%
    02:00 +7°C° 0 mm 3 mps 718 mmHg 86%
    03:00 +7°C° 0 mm 3 mps 717 mmHg 85%
    04:00 +7°C° 0 mm 2 mps 717 mmHg 85%
    05:00 +7°C° 0 mm 2 mps 717 mmHg 84%
    06:00 +7°C° 0 mm 2 mps 717 mmHg 83%
    07:00 +7°C° 0 mm 2 mps 717 mmHg 82%
    08:00 +8°C° 0 mm 2 mps 717 mmHg 81%
    09:00 +9°C° 0 mm 2 mps 717 mmHg 80%
    10:00 +10°C° 0 mm 2 mps 717 mmHg 78%
    11:00 +12°C° 0 mm 2 mps 717 mmHg 75%
    12:00 +13°C° 0 mm 2 mps 717 mmHg 73%
    13:00 +13°C° 0.1 mm 2 mps 716 mmHg 73%
    14:00 +13°C° 0.1 mm 2 mps 716 mmHg 74%
    15:00 +14°C° 0.1 mm 2 mps 715 mmHg 74%
    16:00 +13°C° 0.1 mm 1 mps 715 mmHg 79%
    17:00 +12°C° 0.1 mm 1 mps 715 mmHg 84%
    18:00 +10°C° 0.1 mm 0 mps 715 mmHg 89%
    19:00 +9°C° 0 mm 0 mps 715 mmHg 90%
    20:00 +9°C° 0 mm 0 mps 716 mmHg 90%
    21:00 +8°C° 0 mm 0 mps 716 mmHg 90%
    22:00 +8°C° 0 mm 0 mps 716 mmHg 90%
    23:00 +7°C° 0 mm 0 mps 716 mmHg 90%

    25 January, Friday

    Time Temperature Precipitation Wind Pressure Humidity
    00:00 +8°C° 0 mm 1 mps 716 mmHg 90%
    01:00 +8°C° 0 mm 1 mps 716 mmHg 90%
    02:00 +7°C° 0 mm 1 mps 716 mmHg 90%
    03:00 +7°C° 0 mm 1 mps 716 mmHg 90%
    04:00 +7°C° 0 mm 1 mps 716 mmHg 89%
    05:00 +7°C° 0 mm 1 mps 716 mmHg 88%
    06:00 +7°C° 0 mm 1 mps 716 mmHg 87%
    07:00 +8°C° 0 mm 1 mps 716 mmHg 82%
    08:00 +9°C° 0 mm 1 mps 717 mmHg 77%
    09:00 +11°C° 0 mm 1 mps 717 mmHg 72%
    10:00 +12°C° 0 mm 2 mps 717 mmHg 65%
    11:00 +14°C° 0 mm 2 mps 718 mmHg 59%
    12:00 +16°C° 0 mm 2 mps 718 mmHg 52%
    13:00 +17°C° 0 mm 2 mps 717 mmHg 51%
    14:00 +17°C° 0 mm 2 mps 717 mmHg 50%
    15:00 +18°C° 0 mm 3 mps 717 mmHg 49%
    16:00 +15°C° 0 mm 2 mps 717 mmHg 56%
    17:00 +13°C° 0 mm 1 mps 717 mmHg 63%
    18:00 +11°C° 0 mm 1 mps 717 mmHg 69%
    19:00 +11°C° 0 mm 1 mps 717 mmHg 69%
    20:00 +10°C° 0 mm 1 mps 718 mmHg 70%
    21:00 +9°C° 0 mm 0 mps 718 mmHg 70%
    22:00 +9°C° 0 mm 0 mps 718 mmHg 70%
    23:00 +8°C° 0 mm 0 mps 718 mmHg 70%

    26 January, Saturday

    Time Temperature Precipitation Wind Pressure Humidity
    00:00 +8°C° 0 mm 0 mps 718 mmHg 70%
    01:00 +9°C° 0 mm 1 mps 718 mmHg 68%
    02:00 +9°C° 0 mm 1 mps 718 mmHg 66%
    03:00 +9°C° 0 mm 1 mps 718 mmHg 64%
    04:00 +9°C° 0 mm 1 mps 718 mmHg 62%
    05:00 +9°C° 0 mm 1 mps 718 mmHg 60%
    06:00 +9°C° 0 mm 1 mps 718 mmHg 59%
    07:00 +10°C° 0 mm 1 mps 719 mmHg 57%
    08:00 +12°C° 0 mm 1 mps 719 mmHg 55%
    09:00 +13°C° 0 mm 1 mps 720 mmHg 54%
    10:00 +15°C° 0 mm 2 mps 720 mmHg 51%
    11:00 +16°C° 0 mm 2 mps 720 mmHg 48%
    12:00 +18°C° 0 mm 3 mps 721 mmHg 45%
    13:00 +18°C° 0 mm 3 mps 720 mmHg 46%
    14:00 +18°C° 0 mm 3 mps 720 mmHg 48%
    15:00 +18°C° 0 mm 4 mps 719 mmHg 49%
    16:00 +16°C° 0 mm 3 mps 719 mmHg 60%
    17:00 +14°C° 0 mm 2 mps 719 mmHg 72%
    18:00 +12°C° 0 mm 2 mps 719 mmHg 83%
    19:00 +11°C° 0 mm 1 mps 719 mmHg 85%
    20:00 +10°C° 0 mm 1 mps 719 mmHg 87%
    21:00 +10°C° 0 mm 1 mps 719 mmHg 90%
    22:00 +9°C° 0 mm 1 mps 719 mmHg 89%
    23:00 +9°C° 0 mm 1 mps 719 mmHg 89%
    Show more